Weather History for Topeka Forbes, KS

Change the Weather History Date:

Wednesday, April 10, 2013

  Actual Average Record
Temperature  
Mean Temperature 38 °F -  
Max Temperature 43 °F 64 °F 85 °F (1992)
Min Temperature 34 °F 40 °F 25 °F (1989)
Degree Days  
Heating Degree Days 27    
Moisture  
Dew Point 37 °F    
Average Humidity 94    
Maximum Humidity 100    
Minimum Humidity 89    
Precipitation  
Precipitation 0.63 in - - ()
Sea Level Pressure  
Sea Level Pressure 29.86 in    
Wind  
Wind Speed 13 mph (NW)    
Max Wind Speed 21 mph    
Max Gust Speed 39 mph    
Visibility 7 miles    
Events Rain , Thunderstorm    
Averages and records for this station are not official NWS values.
T = Trace of Precipitation, MM = Missing Value Source: NWS Daily Summary

Daily Weather History Graph

Daily Weather History Graph

Search for Another Location

Airport:

Trip Planner

Search our weather history database for the weather conditions in past years. The results will help you decide how hot, cold, wet, or windy it might be!

Date:

Astronomy

Apr. 10, 2013 Rise Set
Actual Time 6:53 AM CDT 7:55 PM CDT
Civil Twilight 6:25 AM CDT 8:22 PM CDT
Nautical Twilight 5:53 AM CDT 8:55 PM CDT
Astronomical Twilight 5:19 AM CDT 9:29 PM CDT
Moon 6:50 AM CDT (4/10) 8:31 PM CDT (4/10)
Length of Visible Light 13h 56m
Length of Day
13h 02m
New Moon, 0% of the Moon is Illuminated
Apr 10
New Moon
Apr 18
First Quarter
Apr 25
Full
May 2
Last Quarter
May 9
New

Hourly Weather History & Observations

Time (CDT) Temp. Windchill Dew Point Humidity Pressure Visibility Wind Dir Wind Speed Gust Speed Precip Events Conditions
12:24 AM 39.2 °F 29.8 °F 37.4 °F 93% 29.83 in 10.0 mi NNE 18.4 mph 39.1 mph 0.03 in Rain Light Rain
12:29 AM 39.2 °F 31.2 °F 37.4 °F 93% 29.85 in 10.0 mi North 13.8 mph 28.8 mph 0.03 in Rain , Thunderstorm Light Rain
12:39 AM 39.2 °F 33.6 °F 37.4 °F 93% 29.86 in 4.0 mi ENE 8.1 mph - 0.12 in Rain , Thunderstorm Heavy Thunderstorms and Rain
12:53 AM 39.9 °F 35.8 °F 39.0 °F 97% 29.85 in 4.0 mi NNE 5.8 mph 17.3 mph 0.21 in Rain , Thunderstorm Thunderstorms and Rain
1:36 AM 41.0 °F 37.1 °F 39.2 °F 93% 29.83 in 7.0 mi NE 5.8 mph - 0.12 in Rain , Thunderstorm Light Rain
1:40 AM 41.0 °F 36.4 °F 39.2 °F 93% 29.82 in 7.0 mi ENE 6.9 mph - 0.12 in Rain Light Rain
1:45 AM 41.0 °F 35.8 °F 39.2 °F 93% 29.81 in 7.0 mi NE 8.1 mph - 0.13 in Rain , Thunderstorm Light Rain
1:53 AM 41.0 °F 33.5 °F 39.9 °F 96% 29.76 in 8.0 mi NNE 13.8 mph - 0.13 in Rain , Thunderstorm Light Rain
2:09 AM 42.8 °F 36.6 °F 41.0 °F 93% 29.75 in 10.0 mi NNE 11.5 mph 19.6 mph 0.01 in Rain Light Rain
2:42 AM 42.8 °F 34.5 °F 41.0 °F 93% 29.82 in 10.0 mi West 18.4 mph 21.9 mph 0.01 in   Overcast
2:53 AM 41.0 °F 33.1 °F 39.9 °F 96% 29.82 in 10.0 mi West 15.0 mph - 0.01 in   Overcast
3:36 AM 39.2 °F 30.5 °F 37.4 °F 93% 29.86 in 8.0 mi WNW 16.1 mph 25.3 mph 0.03 in Rain , Thunderstorm Rain
3:53 AM 39.0 °F 29.9 °F 37.0 °F 93% 29.81 in 10.0 mi NW 17.3 mph 25.3 mph 0.05 in Rain , Thunderstorm Light Rain
4:05 AM 39.2 °F 29.8 °F 37.4 °F 93% 29.84 in 10.0 mi WNW 18.4 mph 24.2 mph 0.01 in Rain Light Rain
4:53 AM 39.0 °F 30.6 °F 37.0 °F 93% 29.88 in 10.0 mi WNW 15.0 mph 24.2 mph 0.01 in Rain Light Rain
5:53 AM 37.9 °F 29.6 °F 36.0 °F 93% 29.90 in 10.0 mi WNW 13.8 mph - 0.00 in   Overcast
6:53 AM 37.9 °F 30.5 °F 36.0 °F 93% 29.87 in 10.0 mi NNW 11.5 mph - 0.00 in   Overcast
7:53 AM 37.9 °F 29.6 °F 36.0 °F 93% 29.90 in 10.0 mi NW 13.8 mph - 0.00 in Rain Light Rain
8:53 AM 37.9 °F 31.5 °F 36.0 °F 93% 29.94 in 10.0 mi WNW 9.2 mph - 0.00 in Rain Light Rain
9:53 AM 37.0 °F 29.3 °F 35.1 °F 93% 29.96 in 6.0 mi WNW 11.5 mph - 0.03 in Rain Light Rain
10:53 AM 37.0 °F 27.7 °F 34.0 °F 89% 29.93 in 9.0 mi NW 16.1 mph - 0.07 in Rain Light Rain
11:53 AM 37.0 °F 28.5 °F 35.1 °F 93% 29.96 in 7.0 mi WNW 13.8 mph - 0.02 in Rain Light Rain
12:53 PM 39.0 °F 30.3 °F 36.0 °F 89% 29.91 in 10.0 mi NW 16.1 mph 21.9 mph 0.01 in   Overcast
1:53 PM 37.0 °F 26.4 °F 35.1 °F 93% 29.94 in 5.0 mi WNW 20.7 mph - 0.01 in Rain Light Rain
2:02 PM 37.4 °F 28.2 °F 35.6 °F 93% 29.91 in 2.5 mi NW 16.1 mph - 0.00 in Rain Light Rain
2:18 PM 37.4 °F 28.5 °F 35.6 °F 93% 29.91 in 3.0 mi NW 15.0 mph - 0.01 in Rain Light Rain
2:53 PM 37.0 °F 28.9 °F 35.1 °F 93% 29.88 in 7.0 mi NNW 12.7 mph 23.0 mph 0.04 in Rain Light Rain
3:53 PM 37.9 °F 28.5 °F 36.0 °F 93% 29.83 in 4.0 mi NNW 17.3 mph - 0.03 in Rain Light Rain
4:53 PM 37.9 °F 29.6 °F 36.0 °F 93% 29.84 in 8.0 mi NW 13.8 mph - 0.00 in   Overcast
5:38 PM 37.4 °F 28.5 °F 37.4 °F 100% 29.81 in 2.5 mi NW 15.0 mph - N/A   Overcast
5:53 PM 37.9 °F 30.0 °F 37.0 °F 97% 29.83 in 2.0 mi WNW 12.7 mph - N/A   Overcast
6:21 PM 37.4 °F 29.3 °F 37.4 °F 100% 29.81 in 4.0 mi NW 12.7 mph - N/A   Overcast
6:53 PM 37.9 °F 30.5 °F 36.0 °F 93% 29.85 in 5.0 mi WNW 11.5 mph - N/A   Overcast
7:53 PM 37.0 °F 28.5 °F 35.1 °F 93% 29.84 in 10.0 mi WNW 13.8 mph - 0.01 in   Overcast
8:53 PM 36.0 °F 27.5 °F 34.0 °F 93% 29.85 in 10.0 mi WNW 12.7 mph 21.9 mph N/A   Overcast
9:53 PM 35.1 °F 24.8 °F 34.0 °F 96% 29.86 in 7.0 mi WNW 17.3 mph 23.0 mph N/A   Overcast
10:53 PM 34.0 °F 24.6 °F 33.1 °F 96% 29.87 in 4.0 mi WNW 13.8 mph 21.9 mph N/A   Overcast
11:53 PM 34.0 °F 25.0 °F 33.1 °F 96% 29.88 in 4.0 mi WNW 12.7 mph 20.7 mph N/A   Overcast